TAM3347 SBPS-SBGR

Flight info

Callsign TAM3347
Flight time 1h 49m
Altitude 30000
Route EDRAG1A EDRAG DCT POSMU DCT REDAD UZ21 VUNOX VUNOX1A
Aircraft A21N/M-SDE2E3FGHIRWXY/LB1

Departure

Time 2026-05-06 13:01
Airport Porto Seguro International Airport (SBPS)

Arrival

Time 2026-05-06 14:50
Airport São Paulo/Guarulhos–Governor André Franco Montoro International Airport (SBGR)
Time Latitude Longitude Altitude Speed Heading
2026-05-06 12:51 -16.44064 -39.08131 160 ft 0 kts 164°
2026-05-06 12:53 -16.44051 -39.08134 160 ft 4 kts 178°
2026-05-06 12:53 -16.44028 -39.08128 160 ft 4 kts 224°
2026-05-06 12:53 -16.44017 -39.08112 160 ft 0 kts 254°
2026-05-06 12:55 -16.44026 -39.08141 160 ft 8 kts 254°
2026-05-06 12:56 -16.44040 -39.08194 160 ft 7 kts 254°
2026-05-06 12:56 -16.44052 -39.08242 160 ft 6 kts 255°
2026-05-06 12:56 -16.44052 -39.08281 160 ft 4 kts 304°
2026-05-06 12:56 -16.44027 -39.08293 160 ft 3 kts 341°
2026-05-06 12:57 -16.44008 -39.08299 160 ft 3 kts 344°
2026-05-06 12:57 -16.43991 -39.08304 160 ft 3 kts 345°
2026-05-06 12:57 -16.43968 -39.08310 159 ft 4 kts 345°
2026-05-06 12:57 -16.43936 -39.08322 159 ft 5 kts 324°
2026-05-06 12:58 -16.43926 -39.08370 158 ft 11 kts 257°
2026-05-06 12:58 -16.43956 -39.08475 159 ft 19 kts 254°
2026-05-06 12:58 -16.43999 -39.08637 159 ft 27 kts 254°
2026-05-06 12:58 -16.44052 -39.08836 160 ft 19 kts 254°
2026-05-06 12:59 -16.44069 -39.08945 160 ft 13 kts 285°
2026-05-06 12:59 -16.44061 -39.08969 160 ft 2 kts 284°
2026-05-06 12:59 -16.44073 -39.08987 160 ft 3 kts 207°
2026-05-06 12:59 -16.44086 -39.08984 160 ft 2 kts 153°
2026-05-06 13:00 -16.44091 -39.08966 160 ft 3 kts 89°
2026-05-06 13:00 -16.44085 -39.08949 160 ft 2 kts 73°
2026-05-06 13:00 -16.44083 -39.08943 160 ft 0 kts 73°
2026-05-06 13:00 -16.44063 -39.08872 161 ft 39 kts 74°
2026-05-06 13:01 -16.43916 -39.08327 159 ft 113 kts 74°
2026-05-06 13:01 -16.43666 -39.07349 210 ft 162 kts 77°
2026-05-06 13:01 -16.43383 -39.06206 813 ft 163 kts 76°
2026-05-06 13:01 -16.43072 -39.05077 1499 ft 161 kts 77°
2026-05-06 13:02 -16.42751 -39.03902 1737 ft 178 kts 77°
2026-05-06 13:02 -16.42395 -39.02595 1870 ft 199 kts 77°
2026-05-06 13:02 -16.41994 -39.01125 1991 ft 223 kts 76°
2026-05-06 13:02 -16.41915 -38.99454 2212 ft 243 kts 108°
2026-05-06 13:03 -16.42906 -38.98028 2898 ft 252 kts 144°
2026-05-06 13:03 -16.44598 -38.97486 3651 ft 265 kts 178°
2026-05-06 13:03 -16.46437 -38.97852 4432 ft 274 kts 195°
2026-05-06 13:03 -16.48239 -38.98543 5218 ft 279 kts 198°
2026-05-06 13:04 -16.50066 -38.99270 6001 ft 282 kts 196°
2026-05-06 13:04 -16.51932 -38.99926 6781 ft 284 kts 193°
2026-05-06 13:04 -16.53843 -39.00496 7518 ft 287 kts 191°
2026-05-06 13:04 -16.55792 -39.00998 8277 ft 290 kts 189°
2026-05-06 13:05 -16.57775 -39.01454 8980 ft 293 kts 188°
2026-05-06 13:05 -16.59782 -39.01889 9727 ft 296 kts 188°
2026-05-06 13:05 -16.61761 -39.02546 10385 ft 304 kts 204°
2026-05-06 13:05 -16.63509 -39.03818 11011 ft 311 kts 223°
2026-05-06 13:06 -16.64941 -39.05564 11411 ft 327 kts 229°
2026-05-06 13:06 -16.66397 -39.07450 11547 ft 349 kts 230°
2026-05-06 13:06 -16.67938 -39.09465 11928 ft 360 kts 230°
2026-05-06 13:06 -16.69511 -39.11523 12530 ft 365 kts 230°
2026-05-06 13:07 -16.71122 -39.13630 13177 ft 368 kts 230°
2026-05-06 13:07 -16.72704 -39.15696 13828 ft 371 kts 230°
2026-05-06 13:07 -16.74322 -39.17809 14398 ft 375 kts 230°
2026-05-06 13:07 -16.75958 -39.19940 14978 ft 377 kts 230°
2026-05-06 13:08 -16.77605 -39.22085 15569 ft 379 kts 230°
2026-05-06 13:08 -16.79226 -39.24197 16138 ft 382 kts 230°
2026-05-06 13:08 -16.80664 -39.26071 16336 ft 379 kts 230°
2026-05-06 13:08 -16.82304 -39.28207 16464 ft 376 kts 230°
2026-05-06 13:09 -16.83931 -39.30331 16583 ft 373 kts 230°
2026-05-06 13:09 -16.85542 -39.32439 16707 ft 370 kts 232°
2026-05-06 13:09 -16.86922 -39.34704 16835 ft 370 kts 242°
2026-05-06 13:09 -16.87881 -39.37152 16968 ft 373 kts 252°
2026-05-06 13:10 -16.88472 -39.39840 17239 ft 385 kts 258°
2026-05-06 13:10 -16.88989 -39.42598 17722 ft 390 kts 258°
2026-05-06 13:10 -16.89512 -39.45378 18277 ft 392 kts 258°
2026-05-06 13:10 -16.90041 -39.48185 18783 ft 394 kts 258°
2026-05-06 13:11 -16.90571 -39.50995 19286 ft 395 kts 258°
2026-05-06 13:11 -16.91103 -39.53817 19803 ft 397 kts 258°
2026-05-06 13:11 -16.91641 -39.56649 20298 ft 398 kts 257°
2026-05-06 13:11 -16.92180 -39.59491 20767 ft 400 kts 257°
2026-05-06 13:12 -16.92721 -39.62347 21228 ft 402 kts 257°
2026-05-06 13:12 -16.93266 -39.65221 21689 ft 404 kts 257°
2026-05-06 13:12 -16.93808 -39.68102 22149 ft 406 kts 257°
2026-05-06 13:12 -16.94351 -39.71003 22609 ft 408 kts 257°
2026-05-06 13:13 -16.94895 -39.73920 23062 ft 410 kts 257°
2026-05-06 13:13 -16.95443 -39.76849 23515 ft 412 kts 257°
2026-05-06 13:13 -16.95997 -39.79792 23926 ft 414 kts 257°
2026-05-06 13:13 -16.96554 -39.82747 24273 ft 416 kts 256°
2026-05-06 13:14 -16.97111 -39.85717 24647 ft 418 kts 257°
2026-05-06 13:14 -16.97800 -39.88662 25008 ft 417 kts 249°
2026-05-06 13:14 -16.98945 -39.91439 25367 ft 417 kts 239°
2026-05-06 13:14 -17.00528 -39.93971 25723 ft 417 kts 231°
2026-05-06 13:15 -17.02269 -39.96402 26086 ft 418 kts 232°
2026-05-06 13:15 -17.04013 -39.98842 26445 ft 420 kts 232°
2026-05-06 13:15 -17.05763 -40.01296 26793 ft 422 kts 232°
2026-05-06 13:15 -17.07496 -40.03735 27149 ft 424 kts 232°
2026-05-06 13:16 -17.09255 -40.06216 27523 ft 426 kts 232°
2026-05-06 13:16 -17.11026 -40.08714 27902 ft 428 kts 232°
2026-05-06 13:16 -17.12801 -40.11219 28258 ft 430 kts 232°
2026-05-06 13:16 -17.14588 -40.13737 28606 ft 432 kts 232°
2026-05-06 13:17 -17.16383 -40.16265 28939 ft 434 kts 232°
2026-05-06 13:17 -17.18188 -40.18806 29275 ft 436 kts 232°
2026-05-06 13:17 -17.19994 -40.21356 29585 ft 438 kts 232°
2026-05-06 13:17 -17.21811 -40.23920 29887 ft 439 kts 232°
2026-05-06 13:18 -17.23637 -40.26493 30142 ft 441 kts 232°
2026-05-06 13:18 -17.27209 -40.31536 30221 ft 420 kts 232°
2026-05-06 13:19 -17.30659 -40.36414 30220 ft 415 kts 232°
2026-05-06 13:19 -17.34094 -40.41275 30216 ft 415 kts 232°
2026-05-06 13:20 -17.37525 -40.46131 30216 ft 415 kts 232°
2026-05-06 13:20 -17.40963 -40.50979 30220 ft 414 kts 232°
2026-05-06 13:21 -17.44386 -40.55825 30218 ft 414 kts 232°
2026-05-06 13:21 -17.47805 -40.60681 30215 ft 414 kts 232°
2026-05-06 13:22 -17.51221 -40.65536 30210 ft 414 kts 232°
2026-05-06 13:22 -17.54613 -40.70364 30202 ft 414 kts 232°
2026-05-06 13:23 -17.58023 -40.75220 30209 ft 414 kts 232°
2026-05-06 13:23 -17.61433 -40.80070 30205 ft 413 kts 232°
2026-05-06 13:24 -17.64849 -40.84914 30209 ft 413 kts 232°
2026-05-06 13:24 -17.68261 -40.89768 30207 ft 413 kts 232°
2026-05-06 13:25 -17.71665 -40.94620 30203 ft 413 kts 232°
2026-05-06 13:25 -17.75065 -40.99472 30207 ft 413 kts 232°
2026-05-06 13:26 -17.78462 -41.04325 30208 ft 412 kts 232°
2026-05-06 13:26 -17.81854 -41.09179 30211 ft 412 kts 232°
2026-05-06 13:27 -17.85245 -41.14024 30211 ft 412 kts 232°
2026-05-06 13:27 -17.88631 -41.18870 30207 ft 411 kts 232°
2026-05-06 13:28 -17.92021 -41.23713 30205 ft 411 kts 232°
2026-05-06 13:28 -17.95404 -41.28558 30210 ft 412 kts 232°
2026-05-06 13:29 -17.98790 -41.33412 30206 ft 412 kts 232°
2026-05-06 13:29 -18.02173 -41.38262 30207 ft 411 kts 231°
2026-05-06 13:30 -18.05550 -41.43109 30207 ft 411 kts 231°
2026-05-06 13:30 -18.08926 -41.47945 30202 ft 410 kts 231°
2026-05-06 13:31 -18.12297 -41.52791 30200 ft 411 kts 231°
2026-05-06 13:31 -18.15656 -41.57645 30193 ft 411 kts 231°
2026-05-06 13:32 -18.18998 -41.62465 30197 ft 411 kts 231°
2026-05-06 13:32 -18.22360 -41.67315 30205 ft 410 kts 231°
2026-05-06 13:33 -18.25722 -41.72168 30208 ft 410 kts 231°
2026-05-06 13:33 -18.29088 -41.77015 30202 ft 410 kts 231°
2026-05-06 13:34 -18.32450 -41.81862 30201 ft 410 kts 231°
2026-05-06 13:34 -18.35798 -41.86706 30203 ft 409 kts 231°
2026-05-06 13:35 -18.39146 -41.91552 30204 ft 409 kts 231°
2026-05-06 13:35 -18.42490 -41.96393 30207 ft 409 kts 231°
2026-05-06 13:36 -18.45835 -42.01239 30198 ft 409 kts 231°
2026-05-06 13:36 -18.49173 -42.06084 30210 ft 408 kts 231°
2026-05-06 13:37 -18.52512 -42.10925 30213 ft 408 kts 231°
2026-05-06 13:37 -18.55851 -42.15761 30213 ft 408 kts 231°
2026-05-06 13:38 -18.59181 -42.20604 30220 ft 408 kts 231°
2026-05-06 13:38 -18.62511 -42.25442 30223 ft 407 kts 231°
2026-05-06 13:39 -18.65835 -42.30273 30224 ft 407 kts 231°
2026-05-06 13:39 -18.69126 -42.35079 30222 ft 407 kts 231°
2026-05-06 13:40 -18.72437 -42.39915 30221 ft 407 kts 230°
2026-05-06 13:40 -18.75753 -42.44747 30225 ft 406 kts 230°
2026-05-06 13:41 -18.79060 -42.49579 30233 ft 406 kts 230°
2026-05-06 13:41 -18.82364 -42.54403 30234 ft 405 kts 230°
2026-05-06 13:42 -18.85659 -42.59223 30231 ft 405 kts 230°
2026-05-06 13:42 -18.88953 -42.64043 30228 ft 405 kts 230°
2026-05-06 13:43 -18.92240 -42.68860 30232 ft 404 kts 230°
2026-05-06 13:43 -18.95520 -42.73678 30235 ft 404 kts 230°
2026-05-06 13:44 -18.98794 -42.78495 30234 ft 403 kts 230°
2026-05-06 13:44 -19.02070 -42.83310 30232 ft 403 kts 230°
2026-05-06 13:45 -19.05344 -42.88112 30232 ft 402 kts 230°
2026-05-06 13:45 -19.10213 -42.95277 30229 ft 402 kts 230°
2026-05-06 13:46 -19.13468 -43.00077 30224 ft 401 kts 231°
2026-05-06 13:46 -19.16719 -43.04876 30217 ft 401 kts 230°
2026-05-06 13:47 -19.19970 -43.09673 30224 ft 401 kts 230°
2026-05-06 13:47 -19.23215 -43.14467 30227 ft 400 kts 230°
2026-05-06 13:48 -19.25908 -43.18448 30226 ft 400 kts 230°
2026-05-06 13:48 -19.29142 -43.23241 30234 ft 400 kts 230°
2026-05-06 13:49 -19.32381 -43.28028 30238 ft 400 kts 230°
2026-05-06 13:49 -19.35616 -43.32814 30233 ft 400 kts 230°
2026-05-06 13:50 -19.38850 -43.37602 30231 ft 400 kts 230°
2026-05-06 13:50 -19.42081 -43.42394 30228 ft 399 kts 231°
2026-05-06 13:51 -19.45309 -43.47187 30228 ft 399 kts 230°
2026-05-06 13:51 -19.48534 -43.51975 30226 ft 399 kts 231°
2026-05-06 13:52 -19.51733 -43.56730 30227 ft 399 kts 231°
2026-05-06 13:52 -19.54950 -43.61521 30245 ft 399 kts 231°
2026-05-06 13:53 -19.58160 -43.66304 30258 ft 398 kts 231°
2026-05-06 13:53 -19.61368 -43.71084 30271 ft 398 kts 231°
2026-05-06 13:54 -19.64572 -43.75868 30290 ft 398 kts 231°
2026-05-06 13:54 -19.67774 -43.80653 30299 ft 397 kts 231°
2026-05-06 13:55 -19.70971 -43.85433 30289 ft 397 kts 231°
2026-05-06 13:55 -19.74169 -43.90211 30310 ft 397 kts 231°
2026-05-06 13:56 -19.77363 -43.94989 30326 ft 397 kts 231°
2026-05-06 13:56 -19.80557 -43.99763 30326 ft 396 kts 231°
2026-05-06 13:57 -19.83746 -44.04542 30318 ft 396 kts 231°
2026-05-06 13:57 -19.85336 -44.06929 30198 ft 396 kts 231°
2026-05-06 13:57 -19.86929 -44.09320 30197 ft 396 kts 231°
2026-05-06 13:58 -19.90112 -44.14103 30203 ft 396 kts 231°
2026-05-06 13:58 -19.93292 -44.18881 30201 ft 396 kts 231°
2026-05-06 13:59 -19.96482 -44.23660 30198 ft 396 kts 231°
2026-05-06 13:59 -19.99662 -44.28444 30196 ft 396 kts 231°
2026-05-06 14:00 -20.02842 -44.33240 30202 ft 397 kts 231°
2026-05-06 14:00 -20.06022 -44.38029 30204 ft 396 kts 231°
2026-05-06 14:01 -20.09197 -44.42826 30206 ft 397 kts 231°
2026-05-06 14:01 -20.12375 -44.47624 30198 ft 396 kts 230°
2026-05-06 14:02 -20.16274 -44.51609 30200 ft 391 kts 214°
2026-05-06 14:02 -20.20674 -44.55015 30195 ft 391 kts 214°
2026-05-06 14:03 -20.25076 -44.58434 30200 ft 392 kts 214°
2026-05-06 14:03 -20.29476 -44.61870 30197 ft 392 kts 214°
2026-05-06 14:04 -20.33876 -44.65309 30201 ft 393 kts 214°
2026-05-06 14:04 -20.38293 -44.68748 30204 ft 393 kts 214°
2026-05-06 14:05 -20.42712 -44.72193 30212 ft 393 kts 214°
2026-05-06 14:05 -20.47126 -44.75642 30214 ft 393 kts 214°
2026-05-06 14:06 -20.51540 -44.79089 30213 ft 394 kts 214°
2026-05-06 14:06 -20.55958 -44.82539 30210 ft 393 kts 214°
2026-05-06 14:07 -20.60373 -44.85987 30206 ft 393 kts 214°
2026-05-06 14:07 -20.64756 -44.89415 30207 ft 393 kts 214°
2026-05-06 14:08 -20.69173 -44.92870 30212 ft 393 kts 215°
2026-05-06 14:08 -20.73586 -44.96327 30207 ft 393 kts 215°
2026-05-06 14:09 -20.77996 -44.99788 30205 ft 393 kts 215°
2026-05-06 14:09 -20.82405 -45.03255 30205 ft 394 kts 215°
2026-05-06 14:10 -20.86815 -45.06732 30206 ft 394 kts 215°
2026-05-06 14:10 -20.91226 -45.10211 30208 ft 394 kts 215°
2026-05-06 14:11 -20.95645 -45.13685 30209 ft 394 kts 215°
2026-05-06 14:11 -21.00064 -45.17162 30206 ft 394 kts 215°
2026-05-06 14:12 -21.04479 -45.20645 30205 ft 394 kts 215°
2026-05-06 14:12 -21.08893 -45.24125 30205 ft 394 kts 215°
2026-05-06 14:13 -21.13278 -45.27587 30210 ft 394 kts 215°
2026-05-06 14:13 -21.17687 -45.31080 30211 ft 394 kts 215°
2026-05-06 14:14 -21.22102 -45.34579 30217 ft 395 kts 215°
2026-05-06 14:14 -21.26514 -45.38074 30224 ft 394 kts 215°
2026-05-06 14:15 -21.30926 -45.41566 30219 ft 394 kts 215°
2026-05-06 14:15 -21.35335 -45.45049 30219 ft 393 kts 215°
2026-05-06 14:16 -21.39733 -45.48541 30223 ft 393 kts 215°
2026-05-06 14:16 -21.44128 -45.52036 30219 ft 393 kts 215°
2026-05-06 14:17 -21.48517 -45.55529 30212 ft 393 kts 215°
2026-05-06 14:17 -21.52913 -45.59013 30208 ft 392 kts 214°
2026-05-06 14:18 -21.57320 -45.62467 30210 ft 392 kts 214°
2026-05-06 14:18 -21.61731 -45.65909 30221 ft 391 kts 214°
2026-05-06 14:19 -21.66125 -45.69355 30221 ft 391 kts 214°
2026-05-06 14:19 -21.70514 -45.72805 30219 ft 390 kts 214°
2026-05-06 14:20 -21.74889 -45.76259 30214 ft 390 kts 214°
2026-05-06 14:20 -21.79234 -45.79682 30219 ft 390 kts 214°
2026-05-06 14:21 -21.83605 -45.83122 30225 ft 389 kts 214°
2026-05-06 14:21 -21.87963 -45.86562 30227 ft 388 kts 214°
2026-05-06 14:22 -21.92316 -45.90006 30235 ft 388 kts 214°
2026-05-06 14:22 -21.96659 -45.93437 30045 ft 386 kts 214°
2026-05-06 14:23 -21.98808 -45.95137 29621 ft 381 kts 214°
2026-05-06 14:23 -22.00932 -45.96818 29142 ft 376 kts 214°
2026-05-06 14:23 -22.03027 -45.98476 28679 ft 371 kts 214°
2026-05-06 14:23 -22.05097 -46.00117 28221 ft 367 kts 215°
2026-05-06 14:24 -22.07139 -46.01737 27775 ft 363 kts 215°
2026-05-06 14:24 -22.09162 -46.03340 27340 ft 359 kts 215°
2026-05-06 14:24 -22.11164 -46.04926 26913 ft 355 kts 215°
2026-05-06 14:24 -22.13144 -46.06495 26492 ft 352 kts 215°
2026-05-06 14:25 -22.15108 -46.08052 26076 ft 349 kts 216°
2026-05-06 14:25 -22.17059 -46.09603 25630 ft 348 kts 216°
2026-05-06 14:25 -22.19009 -46.11153 25187 ft 348 kts 216°
2026-05-06 14:25 -22.20955 -46.12701 24759 ft 347 kts 216°
2026-05-06 14:26 -22.22872 -46.14226 24324 ft 347 kts 216°
2026-05-06 14:26 -22.24815 -46.15773 23868 ft 347 kts 217°
2026-05-06 14:26 -22.26760 -46.17319 23386 ft 347 kts 216°
2026-05-06 14:26 -22.28695 -46.18858 22924 ft 345 kts 216°
2026-05-06 14:27 -22.30677 -46.20304 22476 ft 343 kts 208°
2026-05-06 14:27 -22.32863 -46.21319 22039 ft 342 kts 197°
2026-05-06 14:27 -22.35240 -46.21860 21630 ft 358 kts 188°
2026-05-06 14:27 -22.37729 -46.22233 21188 ft 363 kts 188°
2026-05-06 14:28 -22.40228 -46.22617 20739 ft 362 kts 188°
2026-05-06 14:28 -22.42717 -46.23004 20311 ft 361 kts 188°
2026-05-06 14:28 -22.45194 -46.23390 19877 ft 359 kts 188°
2026-05-06 14:28 -22.47660 -46.23775 19443 ft 357 kts 188°
2026-05-06 14:29 -22.50112 -46.24157 19011 ft 355 kts 188°
2026-05-06 14:29 -22.52559 -46.24538 18581 ft 354 kts 188°
2026-05-06 14:29 -22.54990 -46.24917 18112 ft 352 kts 188°
2026-05-06 14:29 -22.57401 -46.25292 17964 ft 350 kts 188°
2026-05-06 14:30 -22.59813 -46.25668 17760 ft 350 kts 188°
2026-05-06 14:30 -22.62192 -46.26036 17567 ft 349 kts 188°
2026-05-06 14:30 -22.64593 -46.26409 17367 ft 348 kts 188°
2026-05-06 14:30 -22.66990 -46.26783 17167 ft 348 kts 187°
2026-05-06 14:31 -22.69381 -46.27154 16966 ft 347 kts 187°
2026-05-06 14:31 -22.71762 -46.27523 16766 ft 345 kts 187°
2026-05-06 14:31 -22.74138 -46.27893 16571 ft 345 kts 187°
2026-05-06 14:31 -22.76511 -46.28273 16372 ft 344 kts 190°
2026-05-06 14:32 -22.78800 -46.29014 16167 ft 345 kts 202°
2026-05-06 14:32 -22.80905 -46.30253 15839 ft 344 kts 211°
2026-05-06 14:32 -22.82941 -46.31612 15533 ft 343 kts 211°
2026-05-06 14:32 -22.84803 -46.33176 15330 ft 336 kts 228°
2026-05-06 14:33 -22.85947 -46.35326 15196 ft 327 kts 253°
2026-05-06 14:33 -22.86188 -46.37741 15211 ft 325 kts 276°
2026-05-06 14:33 -22.85564 -46.40087 15217 ft 326 kts 293°
2026-05-06 14:33 -22.84652 -46.42339 15213 ft 326 kts 291°
2026-05-06 14:34 -22.84019 -46.44693 15214 ft 325 kts 279°
2026-05-06 14:34 -22.83653 -46.47110 15210 ft 325 kts 278°
2026-05-06 14:34 -22.83288 -46.49532 15218 ft 325 kts 278°
2026-05-06 14:34 -22.82925 -46.51953 15214 ft 325 kts 278°
2026-05-06 14:35 -22.82736 -46.54389 15207 ft 324 kts 267°
2026-05-06 14:35 -22.82899 -46.56824 15207 ft 324 kts 264°
2026-05-06 14:35 -22.83075 -46.59262 15208 ft 325 kts 264°
2026-05-06 14:35 -22.83256 -46.61701 15203 ft 324 kts 262°
2026-05-06 14:36 -22.83730 -46.64080 15199 ft 323 kts 251°
2026-05-06 14:36 -22.84416 -46.66400 15202 ft 323 kts 251°
2026-05-06 14:36 -22.85096 -46.68720 15199 ft 323 kts 251°
2026-05-06 14:36 -22.85781 -46.71039 15203 ft 323 kts 249°
2026-05-06 14:37 -22.86762 -46.73216 15202 ft 321 kts 236°
2026-05-06 14:37 -22.87952 -46.75264 15206 ft 321 kts 235°
2026-05-06 14:37 -22.89431 -46.77044 15197 ft 318 kts 214°
2026-05-06 14:37 -22.91409 -46.78048 15202 ft 315 kts 191°
2026-05-06 14:38 -22.93581 -46.78162 14930 ft 315 kts 169°
2026-05-06 14:38 -22.95615 -46.77323 14491 ft 314 kts 146°
2026-05-06 14:38 -22.97322 -46.75855 14109 ft 313 kts 140°
2026-05-06 14:38 -22.98991 -46.74357 13711 ft 312 kts 140°
2026-05-06 14:39 -23.00659 -46.72870 13405 ft 308 kts 140°
2026-05-06 14:39 -23.02321 -46.71394 12980 ft 308 kts 140°
2026-05-06 14:39 -23.03975 -46.69932 12552 ft 308 kts 140°
2026-05-06 14:39 -23.05624 -46.68477 12230 ft 304 kts 140°
2026-05-06 14:40 -23.07269 -46.67022 11842 ft 303 kts 140°
2026-05-06 14:40 -23.08346 -46.66068 11558 ft 303 kts 139°
2026-05-06 14:40 -23.09976 -46.64623 11260 ft 300 kts 139°
2026-05-06 14:40 -23.12110 -46.62729 10765 ft 299 kts 139°
2026-05-06 14:41 -23.13718 -46.61303 10388 ft 298 kts 139°
2026-05-06 14:41 -23.15320 -46.59883 10031 ft 297 kts 139°
2026-05-06 14:41 -23.16399 -46.58926 9784 ft 296 kts 139°
2026-05-06 14:41 -23.18481 -46.57102 9555 ft 284 kts 143°
2026-05-06 14:42 -23.19650 -46.56431 9456 ft 279 kts 159°
2026-05-06 14:42 -23.21549 -46.56154 9266 ft 278 kts 184°
2026-05-06 14:42 -23.23387 -46.56759 8891 ft 279 kts 208°
2026-05-06 14:42 -23.25019 -46.57898 8590 ft 277 kts 212°
2026-05-06 14:43 -23.26624 -46.59051 8255 ft 277 kts 212°
2026-05-06 14:43 -23.28219 -46.60195 8027 ft 272 kts 212°
2026-05-06 14:43 -23.29802 -46.61325 7636 ft 274 kts 212°
2026-05-06 14:43 -23.31387 -46.62453 7358 ft 270 kts 212°
2026-05-06 14:44 -23.32944 -46.63559 7167 ft 267 kts 212°
2026-05-06 14:44 -23.34472 -46.64641 6964 ft 264 kts 212°
2026-05-06 14:44 -23.36032 -46.65747 6779 ft 264 kts 212°
2026-05-06 14:45 -23.39072 -46.67908 6381 ft 261 kts 212°
2026-05-06 14:45 -23.40628 -46.68913 6198 ft 259 kts 198°
2026-05-06 14:45 -23.42359 -46.69117 6027 ft 245 kts 168°
2026-05-06 14:45 -23.43857 -46.68393 5773 ft 233 kts 139°
2026-05-06 14:46 -23.44857 -46.67064 5516 ft 221 kts 123°
2026-05-06 14:46 -23.45687 -46.65731 5287 ft 207 kts 122°
2026-05-06 14:46 -23.46474 -46.64474 5099 ft 191 kts 123°
2026-05-06 14:46 -23.47099 -46.63296 5008 ft 171 kts 109°
2026-05-06 14:47 -23.47320 -46.62042 4938 ft 165 kts 91°
2026-05-06 14:47 -23.47134 -46.60797 4711 ft 160 kts 73°
2026-05-06 14:47 -23.46824 -46.59647 4506 ft 158 kts 74°
2026-05-06 14:47 -23.46524 -46.58526 4304 ft 150 kts 74°
2026-05-06 14:48 -23.46237 -46.57452 4095 ft 147 kts 73°
2026-05-06 14:48 -23.45960 -46.56386 3883 ft 145 kts 74°
2026-05-06 14:48 -23.45674 -46.55330 3698 ft 146 kts 73°
2026-05-06 14:48 -23.45382 -46.54289 3527 ft 144 kts 74°
2026-05-06 14:49 -23.45099 -46.53244 3346 ft 143 kts 75°
2026-05-06 14:49 -23.44822 -46.52192 3176 ft 143 kts 73°
2026-05-06 14:49 -23.44551 -46.51159 2970 ft 140 kts 71°
2026-05-06 14:49 -23.44269 -46.50135 2777 ft 141 kts 72°
2026-05-06 14:50 -23.43993 -46.49120 2603 ft 139 kts 71°
2026-05-06 14:50 -23.43726 -46.48128 2472 ft 134 kts 71°
2026-05-06 14:50 -23.43507 -46.47320 2471 ft 82 kts 74°
2026-05-06 14:50 -23.43400 -46.46982 2470 ft 29 kts 52°
2026-05-06 14:51 -23.43271 -46.46825 2469 ft 27 kts 44°
2026-05-06 14:51 -23.43154 -46.46716 2474 ft 15 kts 25°
2026-05-06 14:51 -23.43061 -46.46728 2471 ft 13 kts 344°
2026-05-06 14:51 -23.42979 -46.46751 2471 ft 12 kts 342°
2026-05-06 14:52 -23.42896 -46.46778 2470 ft 13 kts 344°
2026-05-06 14:52 -23.42808 -46.46805 2472 ft 13 kts 344°
2026-05-06 14:52 -23.42777 -46.46878 2469 ft 12 kts 254°
2026-05-06 14:52 -23.42798 -46.46960 2471 ft 12 kts 254°
2026-05-06 14:53 -23.42831 -46.47080 2468 ft 21 kts 253°
2026-05-06 14:53 -23.42876 -46.47249 2470 ft 24 kts 252°
2026-05-06 14:53 -23.42923 -46.47420 2470 ft 23 kts 253°
2026-05-06 14:53 -23.42967 -46.47585 2468 ft 22 kts 253°
2026-05-06 14:54 -23.43009 -46.47742 2474 ft 20 kts 256°
2026-05-06 14:54 -23.42986 -46.47826 2468 ft 7 kts 347°
2026-05-06 14:54 -23.42940 -46.47834 2470 ft 6 kts 353°
2026-05-06 14:54 -23.42898 -46.47838 2470 ft 6 kts 358°
2026-05-06 14:55 -23.42858 -46.47842 2470 ft 5 kts 353°
2026-05-06 14:55 -23.42831 -46.47858 2468 ft 3 kts 293°
2026-05-06 14:55 -23.42831 -46.47880 2470 ft 2 kts 268°
2026-05-06 14:55 -23.42832 -46.47894 2468 ft 2 kts 268°
2026-05-06 14:56 -23.42832 -46.47903 2468 ft 1 kts 266°
2026-05-06 14:56 -23.42833 -46.47925 2468 ft 4 kts 266°
2026-05-06 14:56 -23.42834 -46.47936 2468 ft 0 kts 265°
2026-05-06 14:57 -23.42835 -46.47941 2468 ft 0 kts 264°